#timestamp,LO_Frequency,Hit,StdDev 
1651248015.5,286047005.3,P
1651248035.3,286047007.2,P
1651248055.2,286047008.7,Y
1651248075.0,286046997.0,P
1651248075.9,286046997.0,N
1651248095.7,286046995.0,N
1651248115.6,286046997.7,N
1651248135.4,286046995.7,N
1651248155.3,286046996.2,N
1651248175.1,286046995.8,N
1651248176.0,286046995.8,N
1651248195.8,286046994.6,N
1651248215.7,286046992.5,N
1651248235.5,286046994.6,N
1651248255.3,286046993.2,N
1651248275.2,286046990.4,Y
1651248295.0,286046996.4,P
1651248295.9,286046996.4,P
1651248315.8,286046993.7,P
1651248335.6,286046993.7,Y
1651248355.4,286046998.6,P
1651248375.3,286046998.9,N
1651248395.1,286046998.7,N
1651248415.8,286047001.2,N
1651248435.7,286046998.8,N
1651248455.5,286046998.2,N
1651248475.4,286046998.2,N
1651248495.2,286046997.6,N
1651248515.0,286046997.6,N
1651248515.9,286046997.6,N
1651248535.8,286046996.6,N
1651248555.6,286046998.7,N
1651248575.4,286046999.3,N
1651248595.3,286047002.8,N
1651248615.1,286046999.9,N
1651248635.9,286047002.5,N
1651248655.7,286047000.5,N
1651248675.5,286047000.0,N
1651248695.4,286047001.1,N
1651248715.2,286047000.3,N
1651248735.0,286046998.3,N
1651248735.9,286046998.3,N
1651248755.8,286046996.5,N
1651248775.6,286046998.3,N
1651248795.5,286047002.2,N
1651248815.3,286047003.7,N
1651248835.1,286047006.9,Y
1651248855.9,286047007.8,P
1651248875.7,286047008.9,N
1651248895.6,286047010.6,N
1651248915.4,286047011.5,N
1651248935.2,286047011.9,N
1651248955.1,286047008.2,N
1651248956.0,286047008.2,N
1651248975.8,286047006.3,N
1651248995.6,286047003.0,N
1651249015.5,286047005.5,N
1651249035.3,286047005.6,N
1651249055.1,286047006.4,N
1651249075.9,286047006.2,N
1651249095.7,286047008.6,N
1651249115.6,286047007.0,N
1651249135.4,286047007.6,N
1651249155.2,286047006.5,N
1651249175.1,286047006.3,N
1651249176.0,286047006.3,N
1651249195.8,286047008.3,Y
1651249215.7,286047001.6,P
1651249235.5,286046999.7,N
1651249255.3,286047003.8,N
1651249275.2,286047003.3,N
1651249295.9,286047001.6,N
1651249315.7,286047002.6,N
1651249335.6,286047003.5,N
1651249355.4,286047002.2,N
1651249375.2,286047001.8,N
1651249395.1,286047002.1,N
1651249396.0,286047002.1,N
1651249415.8,286047003.5,N
1651249435.7,286047001.5,N
1651249455.5,286047003.3,N
1651249475.3,286047005.9,Y
1651249495.2,286047000.1,P
1651249515.0,286046998.2,N
1651249515.9,286046998.2,N
1651249535.8,286047001.2,N
1651249555.6,286047000.4,N
1651249575.4,286047001.2,N
1651249595.3,286047000.8,N
1651249615.1,286047001.2,N
1651249635.8,286046998.7,N
1651249655.7,286047002.7,N
1651249675.5,286047002.3,N
1651249695.4,286047000.1,N
1651249715.2,286047002.0,N
1651249735.0,286047002.8,N
1651249735.9,286047002.8,N
1651249755.8,286047003.2,N
1651249775.6,286047003.9,N
1651249795.4,286047003.6,N
1651249815.3,286047004.3,N
1651249835.1,286047003.2,N
1651249855.9,286047003.9,N
1651249875.7,286047001.9,N
1651249895.5,286047002.5,N
1651249915.4,286047003.8,N
1651249935.2,286047003.2,N
1651249955.0,286047005.7,Y
1651249955.9,286047005.7,P
1651249975.8,286047003.5,N
1651249995.6,286047005.0,P
1651250015.5,286047006.4,Y
1651250035.3,286047002.9,P
1651250055.1,286047002.1,P
1651250075.9,286047000.1,N
1651250095.7,286047003.1,N
1651250115.6,286047005.6,Y
1651250135.4,286047002.2,P
1651250155.2,286047000.4,P
1651250175.1,286046998.4,N
1651250176.0,286046998.4,N
1651250195.8,286047000.9,N
1651250215.6,286047000.6,N
1651250235.5,286046998.9,N
1651250255.3,286046999.5,N
1651250275.2,286046998.9,N
1651250295.9,286046998.7,N
1651250315.7,286047001.0,N
1651250335.6,286046999.8,N
1651250355.4,286046998.5,N
1651250375.2,286047002.5,N
1651250395.1,286047001.5,N
1651250396.0,286047001.5,N
1651250415.8,286047002.3,N
1651250435.7,286047001.0,N
1651250455.5,286047004.0,N
1651250475.3,286047003.6,N
1651250495.2,286047000.0,N
1651250515.0,286047000.8,N
1651250515.9,286047000.8,N
1651250535.8,286047001.9,N
1651250555.6,286047002.2,N
1651250575.4,286047001.3,N
1651250595.3,286047002.5,N
1651250615.1,286047004.2,N
1651250635.8,286047004.4,N
1651250655.7,286047002.5,N
1651250675.5,286047004.4,N
1651250695.4,286047004.3,N
1651250715.2,286047001.7,N
1651250735.0,286047003.6,N
1651250735.9,286047003.6,N
1651250755.8,286047005.6,Y
1651250775.6,286047004.3,P
1651250795.4,286047002.3,N
1651250815.3,286047000.9,N
1651250835.1,286047002.4,N
1651250855.9,286047001.8,N
1651250875.7,286047003.2,Y
1651250895.5,286047000.6,P
1651250915.4,286047001.1,N
1651250935.2,286047002.3,P
1651250955.0,286047004.1,Y
1651250956.0,286047004.1,P
1651250975.8,286046998.8,N
1651250995.6,286047000.8,N
1651251045.5,286047000.6,E
1651251055.4,286047002.7,N
1651251075.3,286046998.1,P
1651251095.1,286046998.8,N
1651251096.0,286046998.8,N
1651251115.8,286046997.6,N
1651251135.7,286046999.1,N
1651251155.5,286046999.6,N
1651251175.3,286046998.4,N
1651251195.2,286046999.2,N
1651251215.0,286046998.1,N
1651251215.9,286046998.1,N
1651251235.8,286047000.7,N
1651251255.6,286047001.1,N
1651251275.4,286047000.8,N
1651251295.3,286047001.1,N
1651251315.1,286047002.4,N
1651251335.8,286047002.2,N
1651251355.7,286047001.9,N
1651251375.5,286047000.1,N
1651251395.4,286047000.7,N
1651251415.2,286046998.1,N
1651251435.0,286046999.1,N
1651251435.9,286046999.1,N
1651251455.8,286046998.2,N
1651251475.6,286047000.6,N
1651251495.4,286047001.1,N
1651251515.3,286047001.9,N
1651251535.1,286047005.4,Y
1651251555.9,286047001.4,P
1651251575.7,286047002.4,P
1651251595.5,286046999.7,N
